Weather in Pology

Ukraine / Zaporizhia Region     47°28′31″N   36°16′33″E
temp.,
°C
wind,
m/s
gust,
m/s
humid.,
%
clouds,
%
prec.,
mm/h
press.,
hPa
HPBL,
m
4 march, thu
thu423:000wnw33740 0.0 102560
02:000wsw33800 0.0 102555
05:00−1sw47800 0.0 1024161
08:00+2sw69690 0.0 1022422
11:00+6sw8115431 0.0 10201043
14:00+8sw9125416 0.0 10171284
17:00+7sw7146318 0.0 1015627
20:00+4sw7167456 0.0 1015593
5 march, fri
fri523:00+3sw8168434 0.0 1014582
02:00+3sw8159041 0.0 1013532
05:00+3sw7139198 0.0 1013506
08:00+4sw6109299 0.0 1013517
11:00+6wsw5786100 0.0 1013578
14:00+6sw2589100 0.0 1012309
17:00+6s3488100 0.0 1012122
20:00+6s4684100 0.0 1013131
6 march, sat
sat623:00+4sw2390100 0.0 101148
02:00+3sw4794100 0.0 1011155
05:00+4sw5891100 0.1 1011259
08:00+2nnw81192100 0.1 1013482
11:00+2nnw81173100 0.0 1016961
14:00+2nnw81155100 0.1 10181437
17:000nnw7105194 0.0 10211222
20:00−2nw496147 0.0 1024925
7 march, sun
sun723:00−2wnw38650 0.0 1026683
02:00−2w59610 0.0 1026504
05:00−3w48680 0.0 1026342
08:00−1w57610 0.0 1026522
11:00+2w79440 0.0 10241493
14:00+3w710440 0.0 10221468
17:00+1wsw5114915 0.0 1020531
20:00−1wsw613559 0.0 1020377
8 march, mon
mon823:00−1sw7146411 0.0 1019514
02:00−1wsw715746 0.0 1017512
05:00−1wsw7137827 0.0 1016431
08:00+2wsw8126847 0.0 1016691
11:00+6w8124930 0.0 10151628
14:00+7w8114725 0.0 10151747
17:00+4wnw485746 0.0 1014342
20:00+1nne227673 0.0 101523